Regional Weather Roundup
Issued by NWS

Home | Current Version | Previous Version | Text Only | Print | Product List | Glossary On
Versions: 1 2 3 4 5 6 7 8 9 10 11 12 13 14 15 16 17 18 19 20 21 22 23 24 25 26 27 28 29 30 31 32 33 34 35 36 37 38 39 40 41 42 43 44 45 46 47 48 49 50
000
ASUS43 KLOT 251109
RWRIL

ILLINOIS REGIONAL WEATHER ROUNDUP
NATIONAL WEATHER SERVICE CHICAGO/ROMEOVILLE IL
600 AM CDT THU MAY 25 2017

NOTE: "FAIR" INDICATES FEW OR NO CLOUDS BELOW 12,000 FEET WITH NO
SIGNIFICANT WEATHER AND/OR OBSTRUCTIONS TO VISIBILITY.

* THESE STATIONS ARE NOT UNDER NWS QUALITY CONTROL. THEY ALSO MAY NOT
  REPORT WEATHER SUCH AS PRECIPITATION OR FOG.

ILZ001-002-007-009-015-016-024-251200-
NORTHWEST ILLINOIS

CITY           SKY/WX    TMP DP  RH WIND       PRES   REMARKS
MOLINE         CLEAR     53  49  86 N3        29.64S
STERLING*      CLOUDY    54  51  90 N10       29.64S
SAVANNA*       CLOUDY    54  50  86 N6        29.66R
$$

ILZ003-004-008-010-011-017-018-251200-
NORTH CENTRAL ILLINOIS

CITY           SKY/WX    TMP DP  RH WIND       PRES   REMARKS
ROCKFORD       CLOUDY    55  51  86 N10       29.65R
FREEPORT*      CLOUDY    52  50  92 N7        29.66S
ROCHELLE*      CLOUDY    53  51  94 N13       29.63R
DE KALB*       CLOUDY    53  51  94 N12       29.62R
PERU*          CLOUDY    53  50  89 N15       29.62R
$$

ILZ005-006-012>014-019>023-251200-
NORTHEAST ILLINOIS

CITY           SKY/WX    TMP DP  RH WIND       PRES   REMARKS
CHICAGO-OHARE  PTCLDY    54  50  86 N12       29.56R
CHICAGO-MIDWAY MOCLDY    56  51  84 N10       29.55R
AURORA         CLOUDY    55  52  89 N14G23    29.59R
LANSING*       CLOUDY    54  52  94 N6        29.55R
JOLIET*        PTCLDY    55  53  93 NW6       29.57R
WAUKEGAN       CLOUDY    52  50  93 N8        29.58R
DUPAGE AIRPORT MOCLDY    53  52  96 N12       29.57R FOG
KANKAKEE*      MOCLDY    54  51  91 NW9       29.56R
WHEELING       CLOUDY    53  52  96 N9        29.58R
MORRIS*        CLOUDY    53  51  92 N5        29.58R
ROMEOVILLE*    CLEAR     52  52 100 N10       29.57R
NORTHERLY ISL    N/A     53  49  86 MISG        N/A
$$

LMZ740>746-251200-
SOUTHERN LAKE MICHIGAN

STATION/POSITION SKY/WX   TEMP    WIND        PRES    VSBY  WAVE
                          AIR SEA DIR/SP/G                  HT/PER
                          (F)     (DEG/KT/KT) (MB)    (MI)  (FT/S)
SOUTHERN BUOY              46 45  360/ 14/ 17 1000.5          3/ 5
WILMETTE HARBOR            49 52                N/A           5/ 5
HARRISON CRIB              51     340/ 24/ 28   N/A
BURNHAM HARBOR             53     350/ 12/ 19   N/A
CALUMET HARBOR             52     320/ 12/ 16 1000.5R
BURNS HARBOR               50     340/ 19/ 23 1000.3R
MICHIGAN CITY              49     330/ 23/ 25   N/A
MICHIGAN CITY 6N           49 52  350/ 17/ 21   N/A           6/ 6
ST. JOSEPH                 54 56   20/ 14/ 19  999.9          5/ 5
$$

ILZ025>027-034>036-040-047-049-050-058-095>099-251200-
WEST-CENTRAL ILLINOIS

CITY           SKY/WX    TMP DP  RH WIND       PRES   REMARKS
QUINCY         CLEAR     49  48  97 NW5       29.67R
GALESBURG*     CLEAR     49  49  99 N6        29.64S
MACOMB*        CLEAR     49  49  99 NW6       29.68R
JACKSONVILLE*  CLEAR     50  49  97 W7        29.65R FOG
PITTSFIELD*    CLEAR     51  50  96 W5        29.68R
$$

ILZ028>032-037-038-041>044-048-051>054-059>061-251200-
CENTRAL ILLINOIS

CITY           SKY/WX    TMP DP  RH WIND       PRES   REMARKS
PONTIAC        CLOUDY    55  54  97 NW13      29.60R FOG
BLOOMINGTON    CLOUDY    53  51  93 NW20      29.61R
DECATUR        CLOUDY    55  52  89 N20       29.60R
PEORIA         CLOUDY    54  51  90 N9        29.63R
LACON*         CLOUDY    54  51  92 N7        29.62R
LINCOLN*       CLOUDY    55  53  92 N5        29.62R
SPRINGFIELD    CLOUDY    56  53  90 N10       29.63R
TAYLORVILLE    MOCLDY    54  52  94 NW9       29.63R
$$

ILZ033-039-045-046-055>057-062-063-251200-
EAST-CENTRAL ILLINOIS

CITY           SKY/WX    TMP DP  RH WIND       PRES   REMARKS
CHAMPAIGN      CLOUDY    54  51  90 NW17      29.56R
RANTOUL*       CLOUDY    55  54  94 NW17G23   29.56R FOG
MATTOON        CLOUDY    56  54  93 NW20      29.57R
PARIS*         CLOUDY    55  54  94 NW13G18   29.55R
$$

ILZ079-100>102-251200-
SOUTHWEST ILLINOIS

CITY           SKY/WX    TMP DP  RH WIND       PRES   REMARKS
ALTON          CLEAR     52  51  94 W8        29.66R
BELLEVILLE     CLEAR     54  52  91 W7        29.66R
CAHOKIA*       CLEAR     54  51  90 W7        29.66R
SPARTA*        CLEAR     52  51  95 W5        29.66R
$$

ILZ064>066-069>071-074>076-080>082-084>086-088>090-092>094-251200-
SOUTH-CENTRAL ILLINOIS

CITY           SKY/WX    TMP DP  RH WIND       PRES   REMARKS
CARBONDALE     CLEAR     53  53 100 W8        29.64R
CAIRO*         CLEAR     54  51  89 W8        29.67R
EFFINGHAM*     CLOUDY    57  56  94 W12       29.61R
MARION         CLEAR     55  55 100 W3        29.64S
MT. VERNON       N/A     56  54  93 CALM      29.62R
CENTRALIA*     CLOUDY    56  55  94 W8        29.62R
SALEM*         CLOUDY    57  53  86 W8        29.61R
METROPOLIS*    CLEAR     55  51  88 W6        29.66R
$$

ILZ067-068-072-073-078-083-087-091-251200-
SOUTHEAST ILLINOIS

CITY           SKY/WX    TMP DP  RH WIND       PRES   REMARKS
LAWRENCEVILLE  CLOUDY    58  55  90 NW14G25   29.55R
FLORA*         CLOUDY    58  55  87 NW10G18   29.59R
FAIRFIELD*     CLOUDY    57  55  92 W3        29.60R
HARRISBURG*    CLOUDY    56  54  92 W10       29.62R
ROBINSON*      CLOUDY    56  54  91 NW13G18   29.55R
CARMI*         CLOUDY    56  55  94 W12       29.60R
$$

ABBREVIATIONS USED IN REMARKS
   TC - TEMPERATURE IN CELSIUS
  WCI - WIND CHILL INDEX
   HX - HEAT INDEX
  VSB - VISIBILITY
$$





USA.gov is the U.S. government's official web portal to all federal, state and local government web resources and services.